Lapse_Rate
6.8 6.7 6.8 6.7 6.6 6.6 6.6 6.5 6.4 6.3 6.2 6.2 6.2 6.2 6.2 6.1 6.0 5.9 5.8 5.7 5.7 5.8 6.0 5.5 5.8 5.8 5.6 5.4 5.3 5.3 5.2 5.1 5.1
6.7 6.5 6.6 6.6 6.4 6.3 6.3 6.2 6.0 5.9 5.9 5.9 5.9 6.0 6.0 5.9 5.9 5.7 5.7 5.6 5.6 5.5 5.7 5.6 5.5 5.4 5.5 5.4 5.4 5.2 5.2 5.2 5.2
6.5 6.5 6.4 6.3 6.3 6.2 6.1 6.0 5.8 5.8 5.8 5.7 5.8 5.8 5.7 5.7 5.6 5.5 5.4 5.4 5.4 5.4 5.4 5.2 5.3 5.4 5.4 5.2 5.2 5.2 5.2 5.1 5.1
6.1 6.1 6.0 6.0 5.9 5.9 5.9 5.8 5.7 5.6 5.6 5.6 5.6 5.5 5.5 5.5 5.3 5.2 5.0 4.9 4.9 5.0 5.0 5.1 5.2 5.1 5.3 5.2 5.2 5.1 5.2 5.1 5.1
6.1 6.0 5.9 5.9 5.9 5.8 5.8 5.8 5.7 5.6 5.6 5.5 5.4 5.3 5.4 5.4 5.2 5.0 4.9 4.9 4.9 4.8 4.8 5.0 4.7 4.8 5.0 5.0 4.9 5.0 4.9 5.0 4.9
6.2 6.1 6.0 6.0 6.0 6.0 5.9 5.8 5.7 5.6 5.6 5.6 5.6 5.6 5.5 5.5 5.4 5.2 5.1 5.1 4.9 5.0 4.9 4.8 4.7 4.9 4.9 4.9 4.8 4.8 4.8 5.0 4.8
6.2 6.1 6.1 6.1 6.0 6.0 5.9 5.8 5.8 5.8 5.8 5.8 5.7 5.7 5.7 5.6 5.4 5.4 5.2 5.1 5.1 5.1 5.1 5.0 4.9 4.9 5.0 5.1 5.2 5.0 5.0 4.9 4.6
6.4 6.4 6.5 6.2 6.0 6.0 5.9 5.9 5.9 6.0 6.0 6.1 6.0 5.9 5.8 5.6 5.4 5.3 5.3 5.4 5.6 5.6 5.7 5.5 5.2 5.2 5.2 5.2 5.1 5.0 5.0 4.9 4.8
6.8 6.8 6.4 6.3 6.2 6.2 6.1 6.2 6.3 6.3 6.1 6.0 5.7 5.6 5.5 5.3 5.4 5.3 5.6 5.8 5.6 5.5 5.6 5.4 5.2 5.1 5.0 5.1 5.0 5.0 5.0 4.9 4.8
6.5 6.3 6.4 6.3 6.1 6.1 6.1 6.1 6.0 5.8 5.6 5.6 5.6 5.5 5.3 5.4 5.7 5.8 5.7 5.7 5.7 5.5 5.6 5.7 5.5 5.3 5.1 5.1 4.9 4.8 4.8 4.5 4.8
6.2 6.2 6.2 6.1 6.0 6.0 6.0 5.9 5.7 5.6 5.6 5.6 5.7 5.6 5.7 5.9 6.0 5.9 5.8 5.8 5.8 5.7 5.6 5.5 5.5 5.5 5.5 5.4 5.1 4.8 4.7 4.8 4.6
6.2 6.3 6.2 6.0 5.9 5.9 5.8 5.6 5.5 5.5 5.6 5.8 5.8 5.7 5.8 5.9 5.8 5.8 5.9 5.9 5.9 5.8 5.6 5.4 5.4 5.4 5.4 5.3 5.3 5.0 4.7 4.5 4.5
6.2 6.0 5.8 5.7 5.7 5.7 5.6 5.5 5.5 5.7 6.0 6.1 6.0 6.0 6.0 6.0 5.9 5.7 5.6 5.6 5.7 5.5 5.5 5.4 5.3 5.2 5.2 5.1 5.0 5.0 4.9 4.7 4.5
5.9 5.7 5.7 5.5 5.5 5.5 5.4 5.5 5.7 6.2 6.3 6.4 6.3 6.2 6.1 6.0 5.9 5.8 5.7 5.6 5.5 5.4 5.4 5.3 5.2 5.0 4.9 4.7 4.6 4.4 4.5 4.6 4.7
5.5 5.4 5.4 5.3 5.4 5.4 5.5 5.5 5.8 6.2 6.4 6.4 6.4 6.2 6.1 6.1 5.9 5.7 5.5 5.4 5.3 5.3 5.2 5.1 4.9 4.7 4.5 4.4 4.3 4.4 4.4 4.4 4.4
5.2 5.2 5.2 5.2 5.4 5.5 5.7 5.9 6.1 6.3 6.4 6.4 6.2 6.1 6.0 6.1 5.8 5.8 5.7 5.5 5.3 5.2 5.0 5.0 5.0 5.1 5.0 4.9 4.8 4.8 4.7 4.6 4.5
5.2 5.1 5.2 5.4 5.6 5.7 5.9 6.2 6.3 6.2 6.3 6.3 6.4 6.6 6.5 6.4 6.2 6.0 6.0 5.8 5.9 5.7 5.6 5.5 5.2 5.1 5.1 5.0 4.9 4.8 4.7 4.6 4.6
5.2 5.3 5.3 5.4 5.7 5.9 6.1 6.2 6.3 6.3 6.2 6.1 6.0 6.1 6.3 6.5 6.5 6.4 6.2 6.0 6.0 5.8 5.6 5.3 5.1 4.9 4.8 4.7 4.6 4.6 4.6 4.5 4.4
5.3 5.2 5.3 5.6 5.8 5.9 6.0 6.1 6.2 6.1 6.1 6.0 5.7 5.5 5.3 5.4 5.7 6.1 6.1 6.0 5.8 5.7 5.7 5.5 5.3 5.1 4.8 4.5 4.3 4.1 4.0 3.9 3.8
5.2 5.3 5.7 5.9 6.0 6.0 6.0 6.0 6.0 6.0 5.9 5.8 5.7 5.4 5.2 4.8 4.6 5.1 5.4 5.7 5.9 5.7 5.4 5.1 4.8 4.5 4.3 4.0 3.8 3.7 3.6 3.5 3.4
Wind_Speed
6 13 11 8 4 2 1 1 2 4 5 6 6 7 7 6 6 8 11 11 12 11 8 10 9 8 10 11 12 11 11 12 11
8 11 9 7 5 3 1 2 4 6 7 8 8 9 9 8 7 8 9 11 13 12 12 13 13 10 11 13 15 15 17 18 16
9 10 9 6 4 4 4 5 6 7 9 9 10 9 9 9 9 10 11 13 13 12 13 14 13 14 14 15 17 16 18 18 18
5 10 8 6 5 6 6 7 9 9 10 11 11 11 12 11 10 10 12 14 14 12 14 15 14 14 14 16 18 20 18 20 19
2 9 8 8 8 8 9 9 10 11 11 12 13 14 15 13 12 12 13 15 15 15 16 15 15 16 16 17 18 19 21 21 22
6 8 10 11 11 11 11 10 11 11 13 14 15 14 12 12 11 11 16 17 17 16 18 19 18 18 17 17 19 19 22 22 23
10 12 14 13 13 12 11 10 11 12 11 12 12 9 10 8 8 10 16 19 21 19 21 20 19 20 20 19 19 22 22 22 24
8 6 8 11 10 8 9 9 8 7 7 6 7 9 8 7 8 10 15 15 14 16 19 19 16 16 19 22 24 24 22 24 25
3 4 3 3 5 3 3 5 9 10 12 10 8 8 8 8 8 10 13 14 15 16 17 18 18 17 16 18 20 23 24 22 22
3 2 4 6 7 7 4 5 4 5 7 7 6 5 8 10 9 10 16 18 19 18 17 18 19 17 15 15 16 17 18 19 21
3 4 5 6 8 8 7 4 4 4 4 6 7 6 8 10 11 11 16 18 18 21 18 19 18 19 20 20 19 20 19 20 20
7 5 4 5 8 9 8 6 6 5 5 6 6 5 8 7 8 11 14 15 15 18 18 19 18 20 21 22 21 21 21 22 23
8 5 4 8 10 7 4 4 4 5 5 4 5 5 5 6 7 10 12 13 12 14 18 17 18 21 22 21 21 22 24 24 25
10 4 5 10 5 4 4 4 3 4 5 5 5 5 4 3 5 6 7 7 10 12 13 16 17 23 20 22 23 23 23 24 27
11 7 6 8 4 4 4 4 3 2 4 4 6 5 2 2 5 5 8 10 10 12 11 13 17 26 23 26 24 23 27 27 26
10 5 5 6 5 4 5 3 4 2 5 3 4 3 2 3 9 4 5 5 10 10 11 13 14 13 24 19 25 27 29 26 29
9 5 5 5 4 6 5 5 3 2 4 2 1 4 4 3 9 4 6 6 8 5 15 13 13 14 13 17 26 26 27 28 27
10 8 5 5 4 3 3 3 4 2 2 4 3 4 3 7 2 8 3 13 5 7 8 10 12 13 12 16 16 23 26 31 32
9 8 6 4 3 4 3 3 2 2 3 2 3 1 3 3 6 2 10 4 10 7 4 6 7 12 14 14 19 22 31 32 29
8 7 6 4 3 2 3 3 4 2 2 1 2 2 3 5 4 10 5 10 9 8 8 4 7 12 11 10 14 31 30 27 31
Wind_Direction
185 156 178 160 159 126 82 351 322 313 315 312 309 306 306 308 305 295 296 301 302 299 268 243 250 268 267 264 258 254 254 252 257
197 173 170 166 174 184 244 308 317 303 295 295 282 279 281 279 277 284 289 292 293 287 284 272 256 263 267 262 265 265 263 268 262
175 167 173 188 208 228 268 287 295 301 296 291 290 293 286 275 269 274 278 278 283 276 277 278 270 274 275 274 277 267 269 257 261
183 188 190 207 230 235 262 275 283 288 285 286 283 281 276 272 262 266 268 273 276 274 272 277 272 271 269 271 273 274 265 269 263
220 190 206 220 232 246 263 274 276 280 284 286 284 281 282 272 264 260 265 274 273 274 275 274 268 263 262 261 263 267 271 275 268
217 218 224 230 235 250 260 265 271 276 280 280 281 284 270 269 264 259 263 269 273 276 269 263 264 264 262 261 266 270 269 267 267
216 226 240 239 243 255 266 276 285 289 280 280 281 274 269 261 269 275 282 287 292 289 282 279 269 262 259 259 266 266 266 266 267
226 229 245 256 275 288 302 298 301 298 308 312 314 312 314 312 302 301 305 324 332 332 330 330 306 288 280 273 268 271 276 272 270
186 218 247 278 287 295 335 15 33 33 32 23 8 2 12 6 346 341 346 5 9 7 355 344 326 310 293 290 289 283 284 287 286
104 63 73 46 57 52 42 44 30 22 11 14 12 8 2 4 5 357 19 16 11 13 7 3 3 4 358 349 344 336 322 313 306
85 68 54 49 49 52 50 43 32 19 5 4 359 352 1 2 2 25 10 9 16 8 5 8 2 11 4 358 351 346 346 346 349
72 65 54 48 46 58 49 33 30 26 4 355 346 350 349 354 18 19 3 5 14 12 11 5 14 1 0 353 344 343 341 339 334
85 78 56 48 47 43 41 26 25 16 5 338 330 336 341 354 24 6 357 3 4 8 4 13 7 360 350 345 344 337 332 331 332
79 70 57 52 46 38 32 31 43 18 348 325 319 320 329 13 4 357 353 353 7 359 5 6 356 350 352 346 339 335 334 328 325
77 65 56 53 52 34 24 34 6 52 332 317 309 303 314 42 12 346 352 341 6 356 360 351 355 347 346 339 339 338 332 326 324
75 65 56 49 55 46 29 7 5 343 349 351 317 320 341 51 351 346 334 359 348 351 354 354 342 330 335 338 334 331 328 324 317
74 72 61 54 57 39 31 36 358 335 17 318 301 343 327 328 323 323 344 350 345 338 344 332 324 327 319 329 330 327 325 319 320
76 73 74 61 59 44 29 26 41 344 313 8 79 347 307 326 318 311 344 337 323 322 314 306 311 312 320 318 322 319 316 318 310
73 73 69 63 52 39 358 22 14 6 1 327 33 215 234 317 319 319 318 305 313 289 283 291 290 308 301 302 314 314 314 309 305
68 66 59 51 41 19 20 7 5 8 344 348 322 286 243 238 256 300 308 306 304 301 296 279 299 299 290 303 308 314 310 305 306